Regional Weather Roundup
Issued by NWS Wakefield, VA

Home | Current Version | Previous Version | Graphics & Text | Print | Product List | Glossary On
Versions: 1 2 3 4 5 6 7 8 9 10 11 12 13 14 15 16 17 18 19 20 21 22 23 24 25 26 27 28
000
ASUS41 KAKQ 220515
RWRAKQ

REGIONAL WEATHER ROUNDUP
NATIONAL WEATHER SERVICE WAKEFIELD VA
100 AM EDT SUN APR 22 2018

Note: "fair" indicates few or no clouds below 12,000 feet with no
significant weather and/or obstructions to visibility. * = Denotes
station may not report precipitation (e.g., rain,snow,etc.),
thunder or fog.

VAZ042-051-052>054-056-220600-
NORTHERN VIRGINIA

CITY           SKY/WX    TMP DP  RH WIND       PRES   REMARKS
WASH NATIONAL  MOCLDY    52  40  63 S5        30.39S
DULLES         CLOUDY    48  39  71 CALM      30.38R
FORT BELVOIR   CLOUDY    47  33  59 CALM      30.39R
QUANTICO       FAIR      52  42  69 S6        30.39S
FREDERICKSBRG* FAIR      51  40  66 CALM      30.38S
STAFFORD*      FAIR      49  37  63 CALM      30.42S
WARRENTON      FAIR      46  38  73 CALM      30.37S
CULPEPER*      FAIR      46  34  62 CALM      30.39R
MANASSAS*      FAIR      48  39  71 CALM      30.39R
LEESBURG*      FAIR      48  39  71 CALM      30.39R
WINCHESTER     FAIR      45  32  61 CALM      30.38R
FRONT ROYAL*   FAIR      48  32  53 CALM      30.36R
LURAY*         FAIR      45  36  70 CALM      30.36R
$$

VAZ048-049-060>072-079>083-220600-
CENTRAL AND SOUTH CENTRAL VIRGINIA

CITY           SKY/WX    TMP DP  RH WIND       PRES   REMARKS
RICHMOND       CLOUDY    47  41  80 SE6       30.38S
CHESTERFIELD*  FAIR      50  40  68 S8        30.39R
PETERSBURG*    FAIR      48  39  69 SE3       30.39S
HANOVER        FAIR      50  39  66 SE6       30.39S
TAPPAHANNOCK*  FAIR      48  40  74 CALM      30.41R
QUINTON*       FAIR      47  39  72 CALM      30.39S
CHARLOTTSVILLE FAIR      56  31  38 NE6       30.36R
GORDONSVILLE*  FAIR      49  42  74 NE3       30.37R
ORANGE*        FAIR      50  36  57 CALM      30.37R
LOUISA*        FAIR      52  33  49 SE5       30.41R
BUMPASS*       FAIR      51  35  54 E3        30.37R
FARMVILLE*     FAIR      51  33  50 CALM      30.35R
CREWE*         FAIR      47  42  82 SE5       30.37R
FORT PICKETT*  FAIR      49  43  80 S9        30.38R
CHASE CITY*    FAIR      50  34  55 E3        30.36R
CLARKSVILLE*   FAIR      52  36  54 CALM      30.35R
SOUTH HILL*    FAIR      49  41  73 CALM      30.43R
LAWRENCEVILLE* FAIR      49  43  80 SE3       30.38R
EMPORIA*       FAIR      46  43  87 E3        30.41R
$$

VAZ088>098-220600-
SOUTHEAST VIRGINIA

CITY           SKY/WX    TMP DP  RH WIND       PRES   REMARKS
NORFOLK        FAIR      47  38  71 S7        30.41R
VIRGINIA BEACH MOCLDY    43  39  86 SW5       30.41R
NORFOLK NAVAL  MOCLDY    48  36  63 S6        30.42R
WEST POINT*    FAIR      49  39  70 S7        30.42R
SALUDA*        FAIR      45  42  88 CALM      30.40R
NEWPORT NEWS   FAIR      49  37  63 S6        30.41R
LANGLEY AFB    FAIR      49  37  64 S9        30.41R
FORT EUSTIS    FAIR      50  39  66 S9        30.38R
WILLIAMSBURG*  FAIR      50  36  57 CALM      30.42R
HR EXEC AP*    FAIR      43  37  79 CALM      30.42R
FRANKLIN*      FAIR      47  39  75 SE3       30.41R
US460-WAKEFLD  FAIR      48  38  68 CALM      30.40R
$$

VAZ020-022-025-037-045-220600-
WEST CENTRAL AND SOUTHWEST VIRGINIA

CITY           SKY/WX    TMP DP  RH WIND       PRES   REMARKS
STAUNTON*      FAIR      47  33  57 CALM      30.37R
WAYNESBORO*    FAIR      53  30  41 CALM      30.35R
HOT SPRINGS VA FAIR      48  20  33 S7        30.36R
LYNCHBURG      FAIR      49  31  49 CALM      30.35R
DANVILLE       FAIR      44  38  79 CALM      30.34R
SOUTH BOSTON*  FAIR      48  37  64 CALM      30.35R
MARTINSVILLE   FAIR      40  35  81 CALM      30.36S
ROANOKE        FAIR      52  32  46 CALM      30.35S
BLACKSBURG     FAIR      47  34  59 CALM      30.36S
DUBLIN*        FAIR      51  32  48 CALM      30.34S
MARION*        FAIR      48  33  56 CALM      30.34F
HILLSVILLE*    FAIR      51  29  42 S5        30.33R
RICHLANDS*     FAIR      53  -4   9 SE6       30.29S
WISE*          FAIR      52  28  40 S3        30.30S
ABINGDON*      FAIR      53  33  47 CALM      30.30S
$$

MDZ021>025-VAZ099-100-220600-
SOUTHERN MARYLAND AND THE DELMARVA PENINSULA

CITY           SKY/WX    TMP DP  RH WIND       PRES   REMARKS
PATUXENT RIVER FAIR      48  40  73 CALM      30.39R
BAY BRIDGE APT FAIR      50  39  66 S3        30.39S
LEONARDTOWN    FAIR      45  36  70 CALM      30.41R
DOVER          MOCLDY    45  33  63 SW6       30.38R
GEORGETOWN     FAIR      47  37  68 SW3       30.39S
EASTON         FAIR      47  37  68 CALM      30.42S
CAMBRIDGE        N/A     43  39  87 CALM      30.39S
SALISBURY      FAIR      41  38  89 CALM      30.40R
TANGIER        FAIR      50  41  71 S10       30.41R
OCEAN CITY     FAIR      43  42  97 SW3       30.40R
WALLOPS ISLAND FAIR      47  42  83 SW5       30.41R
ACCOMACK*      FAIR      40  39  96 CALM      30.41R
$$

NCZ012>017-030>032-220600-
NORTH CENTRAL AND EASTERN NORTH CAROLINA

CITY           SKY/WX    TMP DP  RH WIND       PRES   REMARKS
ROANOKE RAPIDS FAIR      48  43  81 CALM      30.39R
RALEIGH        FAIR      54  39  57 S8        30.36R
ELIZABETH CITY FAIR      49  40  71 S3        30.41S
AHOSKIE*       FAIR      46  42  85 SE3       30.40S
EDENTON*       FAIR      50  42  73 SE5       30.42R
CURRITUCK*     NOT AVBL
KILL DEVIL HLS FAIR      44  35  69 CALM      30.40S
MANTEO         FAIR      41  37  86 CALM      30.42S
CAPE HATTERAS  FAIR      47  39  74 E5        30.41R
TARBORO*       NOT AVBL
GOLDSBORO      FAIR      50  39  65 E3        30.37R
WASHINGTON     FAIR      47  42  81 E3        30.40R
GREENVILLE     HAZE      52  43  71 CALM      30.40R VSB 3/4
NEW BERN       FAIR      51  44  77 E5        30.40R
WILMINGTON     FAIR      49  43  80 CALM      30.37R
$$

VAZ048-220600-
ELSEWHERE

CITY           SKY/WX    TMP DP  RH WIND       PRES   REMARKS
HARRISBURG PA  MOCLDY    45  36  70 NE5       30.38R
BALTIMORE      MOCLDY    47  35  63 CALM      30.38R
ANNAPOLIS      FAIR      52  38  58 CALM      30.38R
ANDREWS AFB    MOCLDY    48  37  67 CALM      30.38R
PHILADELPHIA   CLOUDY    46  33  60 NE5       30.39R
HENDERSON NC   FAIR      50  33  51 S3        30.36R
GREENSBORO     MOCLDY    54  37  52 S9        30.33R
ROCKY MOUNT    FAIR      51  41  68 CALM      30.38R
$$

VAZ100-220600-
MARINE

STATION/POSITION TIME  TEMP    WIND        PRES    WAVE   SWELL
                       AIR SEA DIR/SP/G            HT/PER HT/PER
                 (UTC) (F)     (DEG/KT/KT) (MB)    (FT/S) (FT/S)
BRANDYWINE LGT   0436   49     240/ 12/ 13 1029.1R
CAPE MAY NJ      0448   47 50  220/  4/  5 1028.5R
LEWES DE         0448   46 50  230/  5/  7 1028.8R
15NM E FENWICK I 0450   45 46  220/  8/ 10 1029.5R   2/ 3   2/13
OCEAN-CITY-INLET 0448   46 49  280/  3/  4 1029.7R
WACHAPREAGUE VA  0448   46 55  250/  3/  5 1029.7R
THOMAS POINT MD  0500   51 51  200/  6/  7 1030.1R
GOOSES REEF MD   0500   51     200/  4/  6 1029.7
COVE POINT MD    0448   50     190/  5/  6 1029.8R
SOLOMONS ISLAND  0448   48 53  190/  1/  2 1029.0R
BISHOPS HEAD MD  0448   51 58  190/  8/  9 1029.7R
PINEY POINT MD   0448          200/  5/  6   N/A
POTOMAC MD       0500   50 53  190/  6/  8 1030.7    1/ 2
CAMBRIDGE MD     0448   48 54              1029.9R
LEWISETTA VA     0448   49 54  210/  9/ 11 1029.3R
RAPPAHANNOCK LGT 0448          160/  9/ 10 1030.2R
YORK RVR RNG VA  0448   51     210/ 12/ 14 1030.2R
YORKTOWN VA      0448   49 56  190/  4/  5 1029.4R
DOMINION TERM VA 0448   50     170/  9/ 12 1029.9R
KIPTOPEKE VA     0448      54  200/ 10/ 14   N/A
CAPE HENRY VA    0448   47     190/  6/  8   N/A
WILLOUBY STN VA  0448   50     150/  8/  9 1029.7R
S CRANEY ISL VA  0448   50     180/ 10/ 12 1029.6R
CAPE HENRY BUOY  0500      50                N/A     2/17
64NM E OF VA BCH 0450   49 49  140/  6/  8 1030.1R   2/ 6   2/ 6
DUCK PIER NC     0448   50 53  140/  7/  8 1029.3R
44100 DUCK FRF   0415      50                N/A     2/ 6
44056 DUCK FRF   0500      52                N/A     2/ 6
OREGON INLET NC  0436   48 59   90/  4/  5 1029.7R
HATTERAS NC      0448   51 62   80/  4/  5 1029.4R
DIAMOND SHLS NC  0500   59 73   40/ 10/ 12 1029.4
CAPE LOOKOUT NC  0500           80/ 11/ 12 1029.0S
$$




USA.gov is the U.S. government's official web portal to all federal, state and local government web resources and services.